Flag for Norway Weather past 2 weeks in Harstad, Norway

Now
55 °F

Broken clouds.


Feels Like: 52 °F
Forecast: 48 / 55 °F
Wind: 13 mph from North

Location: Evenes

Current Time: Jul 6, 2015 at 4:08:24 PM

Latest Report: Jul 6, 2015 at 2:50 PM


Visibility: N/A

Pressure: 29.74 "Hg

Humidity: 67%

Dew point: 45 °F

Location of HarstadLocation

Historic Weather in Harstad — Graph

°F

Harstad temperature yesterday

Maximum temperature yesterday: 57 °F (at 4:58 PM)
Minimum temperature yesterday: 43 °F (at 1:20 AM)
Average temperature yesterday: 49 °F

Past Weeks' High & Low Weather Summary

 TemperatureHumidityPressure
High61 °F (Jun 22, 3:50 PM)100% (Jun 24, 11:50 PM)30.27 "Hg (Jun 24, 11:50 PM)
Low43 °F (Jun 29, 3:20 AM)42% (Jul 1, 1:50 PM)29.68 "Hg (Jun 25, 4:50 AM)
Average50 °F77%29.97 "Hg
* Reported Jun 21 2:50 PM — Jul 6 2:50 PM, Harstad, Weather by CustomWeather, © 2015

Note: Actual official high and low records may vary slightly from our data, if they occured in-between our weather recording intervals... More about our weather records

Advertising

Harstad weather history for previous 24 hours

 ConditionsComfort  
Time TempWeatherWind HumidityBarometerVisibility
2:50 PM
Mon, Jul 6
55 °FBroken clouds.13 mph67%29.74 "HgN/A
1:50 PM55 °FScattered clouds.12 mph63%29.77 "HgN/A
12:50 PM55 °FSunny.12 mph67%29.77 "Hg10 mi
11:50 AM55 °FSunny.9 mph67%29.80 "Hg10 mi
10:50 AM54 °FSunny.8 mph67%29.83 "Hg10 mi
9:50 AM54 °FSunny.8 mph67%29.83 "Hg10 mi
8:50 AM54 °FSunny.7 mph67%29.86 "Hg10 mi
7:50 AM52 °FSunny.8 mph72%29.89 "Hg10 mi
6:50 AM52 °FSunny.6 mph72%29.92 "Hg10 mi
6:20 AM50 °FSunny.6 mph76%29.95 "Hg10 mi
5:50 AM50 °FSunny.5 mph76%29.95 "Hg10 mi
5:20 AM50 °FOvercast.6 mph76%29.95 "HgN/A
4:50 AM48 °FOvercast.5 mph82%29.98 "HgN/A
4:20 AM46 °FPartly sunny.6 mph87%29.98 "HgN/A
3:50 AM48 °FPassing clouds.6 mph82%30.01 "HgN/A
3:20 AM48 °FOvercast.6 mph82%30.01 "HgN/A
2:50 AM48 °FOvercast.6 mph82%30.04 "HgN/A
2:20 AM48 °FOvercast.6 mph82%30.04 "HgN/A
1:50 AM48 °FOvercast.6 mph82%30.04 "HgN/A
1:20 AM48 °FPartly sunny.6 mph82%30.07 "HgN/A
12:50 AM48 °FMostly cloudy.7 mph76%30.07 "HgN/A
12:20 AM48 °FOvercast.8 mph82%30.07 "HgN/A
11:50 PM
Sun, Jul 5
48 °FSunny.6 mph82%30.07 "Hg10 mi
10:50 PM50 °FPartly sunny.8 mph76%30.09 "HgN/A
9:50 PM50 °FPassing clouds.8 mph71%30.09 "HgN/A
8:50 PM52 °FSunny.8 mph67%30.12 "Hg10 mi
7:50 PM54 °FPassing clouds.7 mph58%30.12 "HgN/A
6:50 PM57 °FPassing clouds.7 mph51%30.15 "HgN/A
5:50 PM55 °FScattered clouds.7 mph51%30.15 "HgN/A
4:58 PM57 °FPassing clouds.7 mph48%30.18 "HgN/A
Weather by CustomWeather, © 2015

See weather overviewHow to use our weather pages